#timestamp,LO_Frequency,Hit,StdDev 
1677459615.5,286047001.3,N
1677459635.4,286047001.9,N
1677459655.2,286047002.4,N
1677459675.0,286047002.3,N
1677459676.0,286047002.3,N
1677459695.8,286047004.4,N
1677459715.6,286047001.8,N
1677459735.5,286047004.0,N
1677459755.3,286047001.4,N
1677459775.1,286047001.6,N
1677459795.9,286047002.6,N
1677459815.7,286047002.1,N
1677459835.6,286047001.5,N
1677459855.4,286047005.4,Y
1677459875.2,286046999.8,P
1677459895.1,286047001.7,N
1677459896.0,286047001.7,N
1677459915.8,286047001.5,N
1677459935.7,286047002.8,Y
1677459955.5,286047000.7,P
1677459975.3,286046999.4,N
1677459995.2,286046999.2,N
1677460015.0,286046998.5,N
1677460015.9,286046998.5,N
1677460035.8,286047000.3,N
1677460055.6,286047001.2,N
1677460075.4,286046996.5,Y
1677460095.3,286046997.1,P
1677460115.1,286046999.2,N
1677460135.8,286046999.6,N
1677460155.7,286046999.3,N
1677460175.5,286047001.0,N
1677460195.4,286047000.2,N
1677460215.2,286047000.9,N
1677460235.0,286047001.2,N
1677460235.9,286047001.2,N
1677460255.8,286047002.4,N
1677460275.6,286047000.0,N
1677460295.4,286047000.6,N
1677460315.3,286046999.9,N
1677460335.1,286047000.5,N
1677460355.9,286047001.0,N
1677460375.7,286046996.6,Y
1677460395.5,286046999.2,P
1677460415.4,286046998.3,P
1677460435.2,286046998.8,N
1677460455.1,286047000.1,N
1677460456.0,286047000.1,N
1677460475.8,286047000.7,N
1677460495.6,286047001.0,N
1677460515.5,286046999.9,N
1677460535.3,286047001.1,N
1677460555.2,286046998.5,N
1677460575.9,286046998.7,N
1677460595.7,286046998.6,N
1677460615.6,286046998.3,N
1677460635.4,286047000.6,N
1677460655.2,286047000.4,N
1677460675.1,286047000.6,N
1677460676.0,286047000.6,N
1677460695.8,286047000.9,N
1677460715.7,286047000.5,N
1677460735.5,286047000.2,N
1677460755.3,286047000.7,N
1677460775.2,286046999.5,N
1677460795.0,286046995.1,Y
1677460795.9,286046995.1,P
1677460815.8,286046995.4,N
1677460835.6,286046995.0,N
1677460855.4,286046997.4,N
1677460875.3,286046997.4,N
1677460895.1,286046998.7,N
1677460915.8,286046999.0,N
1677460935.7,286046998.4,N
1677460955.5,286046998.3,N
1677460975.4,286047000.7,N
1677460995.2,286046998.2,N
1677461015.0,286046998.4,N
1677461015.9,286046998.4,N
1677461035.8,286046998.7,N
1677461055.6,286047001.1,N
1677461075.5,286047001.1,N
1677461095.3,286047000.1,N
1677461115.1,286047001.9,N
1677461135.9,286047001.1,N
1677461155.7,286046998.6,N
1677461175.5,286047001.1,N
1677461195.4,286046998.7,N
1677461215.2,286046998.5,N
1677461235.1,286047000.8,N
1677461236.0,286047000.8,N
1677461255.8,286047001.1,N
1677461275.6,286047001.0,N
1677461295.5,286047000.8,N
1677461315.3,286047001.2,N
1677461335.2,286046996.8,N
1677461355.9,286046999.3,N
1677461375.7,286046999.3,N
1677461395.6,286046998.3,N
1677461415.4,286046997.0,N
1677461435.3,286046996.1,N
1677461455.1,286046998.0,N
1677461456.0,286046998.0,N
1677461475.8,286046997.1,N
1677461495.7,286046994.9,Y
1677461515.5,286046999.0,P
1677461535.4,286046998.2,P
1677461555.2,286046999.3,N
1677461575.0,286046998.5,Y
1677461575.9,286046998.5,P
1677461595.8,286047000.3,N
1677461615.6,286047000.4,N
1677461635.4,286047001.5,N
1677461655.3,286047001.4,N
1677461675.1,286047002.8,N
1677461695.9,286047000.1,N
1677461715.7,286047000.5,N
1677461735.5,286047000.3,N
1677461755.4,286046999.8,N
1677461775.2,286047002.2,N
1677461795.0,286047002.3,N
1677461795.9,286047002.3,N
1677461815.8,286047000.4,N
1677461835.6,286046999.7,N
1677461855.5,286047002.8,N
1677461875.3,286047002.8,N
1677461895.1,286047002.6,N
1677461915.9,286046998.6,N
1677461935.7,286047001.1,N
1677461955.5,286046999.4,N
1677461975.4,286046999.5,N
1677461995.2,286046995.3,Y
1677462015.1,286046995.2,P
1677462016.0,286046995.2,N
1677462035.8,286046997.9,N
1677462055.6,286046999.3,N
1677462075.5,286046998.1,N
1677462095.3,286046999.0,N
1677462115.2,286046999.5,N
1677462135.9,286046999.9,N
1677462155.7,286047000.9,N
1677462175.6,286046999.8,N
1677462195.4,286046999.9,N
1677462215.3,286047000.9,N
1677462235.1,286046998.2,N
1677462236.0,286046998.2,N
1677462255.8,286046999.3,N
1677462275.7,286046999.9,N
1677462295.5,286047001.2,N
1677462315.4,286047000.5,N
1677462335.2,286047000.2,N
1677462355.0,286047001.8,N
1677462355.9,286047001.8,N
1677462375.8,286047001.9,N
1677462395.6,286047002.5,N
1677462415.5,286047002.6,N
1677462435.3,286047001.4,N
1677462455.1,286047004.4,N
1677462475.9,286047003.0,N
1677462495.7,286047001.5,N
1677462515.6,286046999.9,N
1677462535.4,286047001.2,N
1677462555.2,286046998.1,N
1677462575.1,286046999.8,N
1677462576.0,286046999.8,N
1677462595.8,286047000.3,N
1677462615.6,286047000.4,N
1677462635.5,286047002.5,N
1677462655.3,286047002.3,N
1677462675.2,286047002.6,N
1677462695.0,286047002.1,N
1677462695.9,286047002.1,N
1677462715.8,286047000.0,N
1677462735.6,286047001.2,N
1677462755.4,286047000.1,N
1677462775.3,286046998.5,N
1677462795.1,286047000.5,N
1677462815.8,286047000.5,N
1677462835.7,286047000.6,N
1677462855.1,286046998.6,N
1677462875.9,286047000.3,N
1677462895.7,286046999.5,N
1677462915.5,286047001.1,N
1677462935.4,286046998.8,N
1677462955.2,286047000.4,N
1677462975.0,286046998.5,N
1677462976.0,286046998.5,N
1677462995.8,286046998.3,N
1677463015.6,286046999.3,N
1677463035.5,286047000.8,N
1677463055.3,286047002.6,N
1677463075.1,286047002.4,N
1677463095.9,286047002.6,N
1677463115.7,286047002.8,N
1677463135.6,286047002.3,N
1677463155.4,286047004.1,N
1677463175.2,286047006.0,Y
1677463195.1,286047003.9,P
1677463196.0,286047003.9,N
